This demonstration page uses our WeatherBlox Daily Observations layout. Learn more.

Hourly Observations for March 15, 2015

Temp ( °F °C ) Dew Point ( °F °C ) Humidity (%) Winds ( mph kmh ) Pressure ( in mb ) Visibility ( mi km ) Precip ( " mm )
12:15 am 00:15 Clear 43 6 13 -10.3 30 30 S 9 15 30.24 1024 10 16.0934 0 0
12:35 am 00:35 Clear 42 5.6 14 -10.2 31 31 S 12 19 30.24 1024 10 16.0934 0 0
12:55 am 00:55 Clear 41 4.9 14 -10.1 33 33 SSW 7 11 30.24 1024 10 16.0934 0 0
1:15 am 01:15 Clear 39 3.8 14 -10.1 36 36 SSW 9 15 30.27 1025 10 16.0934 0 0
1:35 am 01:35 Clear 40 4.4 14 -10 35 35 SSW 10 17 30.24 1024 10 16.0934 0 0
1:55 am 01:55 Clear 41 5 15 -9.6 34 34 SSW 12 19 30.21 1023 10 16.0934 0 0
2:15 am 02:15 Clear 43 6 15 -9.4 32 32 SSW 14 22 30.21 1023 10 16.0934 0 0
2:35 am 02:35 Clear 42 5.4 15 -9.5 34 34 SSW 13 20 30.18 1022 10 16.0934 0 0
2:55 am 02:55 Clear 41 5 15 -9.2 35 35 SSW 12 19 30.21 1023 10 16.0934 0 0
3:15 am 03:15 Clear 42 5.4 15 -9.3 34 34 SW 12 19 30.21 1023 10 16.0934 0 0
3:35 am 03:35 Clear 41 5 15 -9.2 35 35 SW 9 15 30.21 1023 10 16.0934 0 0
3:55 am 03:55 Clear 41 5.1 15 -9.2 35 35 SW 10 17 30.18 1022 10 16.0934 0 0
4:15 am 04:15 Clear 42 5.8 15 -9.4 33 33 SW 15 24 30.18 1022 10 16.0934 0 0
4:35 am 04:35 Clear 43 6 15 -9.5 32 32 SW 14 22 30.18 1022 10 16.0934 0 0
4:55 am 04:55 Clear 42 5.8 15 -9.5 33 33 SW 12 19 30.18 1022 10 16.0934 0 0
5:15 am 05:15 Clear 41 5 15 -9.5 35 35 SW 12 19 30.18 1022 10 16.0934 0 0
5:35 am 05:35 Clear 43 6.3 15 -9.5 32 32 SSW 16 26 30.18 1022 10 16.0934 0 0
5:55 am 05:55 Clear 45 7.1 15 -9.3 30 30 SW 17 28 30.18 1022 10 16.0934 0 0
6:15 am 06:15 Clear 44 6.5 15 -9.3 32 32 SW 15 24 30.18 1022 10 16.0934 0 0
6:35 am 06:35 Clear 43 6.1 15 -9.2 33 33 SW 16 26 30.18 1022 10 16.0934 0 0
6:55 am 06:55 Clear 42 5.7 16 -9.1 34 34 SSW 17 28 30.18 1022 10 16.0934 0 0
7:15 am 07:15 Clear 42 5.5 16 -9 35 35 SW 16 26 30.18 1022 10 16.0934 0 0
7:35 am 07:35 Clear 43 5.9 17 -8.6 35 35 SW 15 24 30.18 1022 10 16.0934 0 0
7:55 am 07:55 Sunny 43 6 17 -8.6 35 35 SW 12 19 30.18 1022 10 16.0934 0 0
8:55 am 08:55 Sunny 42 5.8 17 -8.2 36 36 SW 12 19 30.18 1022 10 16.0934 0 0
9:15 am 09:15 Sunny 45 7 18 -7.9 34 34 SW 15 24 30.18 1022 10 16.0934 0 0
9:35 am 09:35 Sunny 46 7.8 18 -7.6 33 33 SW 14 22 30.15 1021 10 16.0934 0 0
9:55 am 09:55 Sunny 48 9 19 -7.5 31 31 SW 17 28 30.15 1021 10 16.0934 0 0
10:15 am 10:15 Sunny 50 10 19 -7.3 29 29 SW 16 26 30.15 1021 10 16.0934 0 0
10:35 am 10:35 Sunny 51 10.8 19 -7 28 28 WSW 10 17 30.12 1020 10 16.0934 0 0
10:55 am 10:55 Sunny 54 12 20 -6.9 26 26 WSW 14 22 30.15 1021 10 16.0934 0 0
11:15 am 11:15 Sunny 55 12.9 20 -6.5 26 26 WSW 14 22 30.12 1020 10 16.0934 0 0
11:35 am 11:35 Sunny 58 14.6 21 -6.1 24 24 SW 16 26 30.09 1019 10 16.0934 0 0
11:55 am 11:55 Sunny 63 17.4 20 -6.8 19 19 SW 16 26 30.09 1019 10 16.0934 0 0
12:15 pm 12:15 Sunny 66 19 18 -7.9 15 15 SW 18 30 30.06 1018 10 16.0934 0 0
12:35 pm 12:35 Sunny 67 19.7 17 -8.1 15 15 WSW 17 28 30.06 1018 10 16.0934 0 0
12:55 pm 12:55 Sunny 71 21.8 18 -7.8 13 13 SW 18 30 30.03 1017 10 16.0934 0 0
1:15 pm 13:15 Sunny 73 22.6 17 -8.4 12 12 SW 20 31 30.03 1017 10 16.0934 0 0
1:35 pm 13:35 Sunny 75 23.8 16 -8.9 11 11 SW 20 31 30.03 1017 10 16.0934 0 0
1:55 pm 13:55 Sunny 77 24.9 16 -9 10 10 SW 17 28 29.97 1015 10 16.0934 0 0
2:15 pm 14:15 Sunny 79 26.3 15 -9.6 9 9 WSW 16 26 29.97 1015 10 16.0934 0 0
2:35 pm 14:35 Sunny 81 27.3 13 -10.3 8 8 SW 17 28 29.94 1014 10 16.0934 0 0
2:55 pm 14:55 Sunny 82 27.8 13 -10.3 7 7 SW 16 26 29.91 1013 10 16.0934 0 0
3:15 pm 15:15 Sunny 84 28.7 12 -11 7 7 SW 16 26 29.88 1012 10 16.0934 0 0
3:35 pm 15:35 Sunny 84 29.1 14 -9.8 7 7 W 18 30 29.88 1012 10 16.0934 0 0
3:55 pm 15:55 Sunny 84 29 15 -9.7 7 7 WSW 16 26 29.88 1012 10 16.0934 0 0
4:15 pm 16:15 Sunny 85 29.6 12 -10.9 6 6 WSW 17 28 29.88 1012 10 16.0934 0 0
4:35 pm 16:35 Sunny 85 29.5 10 -12 6 6 SW 16 26 29.88 1012 10 16.0934 0 0
4:55 pm 16:55 Sunny 85 29.7 11 -11.8 6 6 SW 10 17 29.85 1011 10 16.0934 0 0
5:15 pm 17:15 Sunny 85 29.5 9 -12.6 6 6 WSW 15 24 29.85 1011 10 16.0934 0 0
5:35 pm 17:35 Sunny 85 29.5 8 -13.2 5 5 SW 21 33 29.85 1011 10 16.0934 0 0
5:55 pm 17:55 Sunny 84 29.1 7 -13.8 5 5 SW 18 30 29.85 1011 10 16.0934 0 0
6:15 pm 18:15 Sunny 84 28.9 6 -14.4 5 5 SW 15 24 29.85 1011 10 16.0934 0 0
6:35 pm 18:35 Sunny 83 28.6 6 -14.6 5 5 SW 18 30 29.85 1011 10 16.0934 0 0
6:55 pm 18:55 Sunny 82 27.5 7 -14.1 5 5 SW 14 22 29.85 1011 10 16.0934 0 0
7:15 pm 19:15 Sunny 79 26.1 7 -13.8 6 6 SSW 13 20 29.88 1012 10 16.0934 0 0
7:35 pm 19:35 Sunny 76 24.6 6 -14.2 7 7 SSW 10 17 29.88 1012 10 16.0934 0 0
7:55 pm 19:55 Clear 72 22.3 8 -13.6 8 8 SSW 13 20 29.91 1013 10 16.0934 0 0
8:15 pm 20:15 Clear 70 21 9 -12.7 9 9 SSW 10 17 29.94 1014 10 16.0934 0 0
8:35 pm 20:35 Clear 68 20.1 10 -12.1 10 10 SSW 13 20 29.94 1014 10 16.0934 0 0
8:55 pm 20:55 Clear 67 19.3 12 -11.3 12 12 SSW 12 19 29.97 1015 10 16.0934 0 0
9:15 pm 21:15 Clear 65 18.3 13 -10.6 13 13 SSW 13 20 29.97 1015 10 16.0934 0 0
9:35 pm 21:35 Clear 64 17.7 14 -10.1 14 14 SSW 15 24 29.97 1015 10 16.0934 0 0
9:55 pm 21:55 Clear 63 17.2 16 -9.1 16 16 SSW 13 20 29.97 1015 10 16.0934 0 0
10:15 pm 22:15 Clear 64 17.5 17 -8.1 17 17 SSW 15 24 29.97 1015 10 16.0934 0 0
10:35 pm 22:35 Clear 63 17 19 -7.2 19 19 SSW 12 19 30 1016 10 16.0934 0 0
10:55 pm 22:55 Clear 61 16 20 -6.7 21 21 SSW 12 19 30 1016 10 16.0934 0 0
11:15 pm 23:15 Clear 60 15.8 21 -6.3 21 21 SSW 13 20 30 1016 10 16.0934 0 0
11:35 pm 23:35 Clear 60 15.7 21 -6.1 22 22 SSW 15 24 30 1016 10 16.0934 0 0
11:55 pm 23:55 Clear 60 15.4 21 -6 23 23 SSW 14 22 30 1016 10 16.0934 0 0

Powered by AerisWeather